Flag for U.S.A. Weather past 2 weeks in Hereford, Texas, U.S.A.

Now
73 °F

Clear.


Feels Like: 77 °F
Forecast: 67 / 92 °F
Wind: 7 mph from South

Location: Clovis Municipal

Current Time: Sep 4, 2015 at 1:36:51 AM

Latest Report: Sep 4, 2015 at 1:15 AM


Visibility: 10 mi

Pressure: 30.03 "Hg (26.25 "Hg at 1167m altitude)

Humidity: 44%

Dew point: 50 °F

Location of HerefordLocation

Historic Weather in Hereford — Graph

°F

Hereford temperature yesterday

Maximum temperature yesterday: 93 °F (at 2:35 PM)
Minimum temperature yesterday: 64 °F (at 6:15 AM)
Average temperature yesterday: 79 °F

Past Weeks' High & Low Weather Summary

 TemperatureHumidityPressure
High99 °F (Aug 22, 5:15 PM)100% (Aug 21, 7:35 AM)30.33 "Hg (Aug 21, 7:35 AM)
Low52 °F (Aug 20, 1:15 AM)13% (Aug 22, 7:35 PM)29.92 "Hg (Aug 21, 6:35 PM)
Average74 °F53%30.14 "Hg
* Reported Aug 20 12:15 AM — Sep 4 12:35 AM, Hereford, Weather by CustomWeather, © 2015

Note: Actual official high and low records may vary slightly from our data, if they occured in-between our weather recording intervals... More about our weather records

Advertising

Hereford weather history for previous 24 hours

 ConditionsComfort  
Time TempWeatherWind HumidityBarometerVisibility
12:35 AM
Fri, Sep 4
75 °FClear.8 mph41%30.03 "Hg10 mi
12:15 AM75 °FClear.8 mph44%30.03 "Hg10 mi
11:55 PM
Thu, Sep 3
75 °FClear.9 mph44%30.03 "Hg10 mi
11:35 PM77 °FClear.10 mph42%30.03 "Hg10 mi
11:15 PM79 °FClear.10 mph39%30.03 "Hg10 mi
10:55 PM79 °FClear.13 mph39%30.03 "Hg10 mi
10:35 PM79 °FPartly cloudy.14 mph39%30.03 "Hg10 mi
10:15 PM81 °FOvercast.10 mph37%30.03 "Hg10 mi
9:55 PM81 °FOvercast.14 mph34%30.02 "Hg10 mi
9:35 PM81 °FOvercast.13 mph37%30.01 "Hg10 mi
9:15 PM82 °FPassing clouds.15 mph35%30.01 "Hg10 mi
8:55 PM82 °FScattered clouds.13 mph32%29.99 "Hg10 mi
8:35 PM82 °FPassing clouds.15 mph35%29.97 "Hg10 mi
8:15 PM82 °FSunny.12 mph35%29.97 "Hg10 mi
7:55 PM84 °FSunny.13 mph33%29.96 "Hg10 mi
7:35 PM84 °FSunny.15 mph33%29.96 "Hg10 mi
7:15 PM88 °FSunny.15 mph29%29.96 "Hg10 mi
6:55 PM88 °FPassing clouds.17 mph29%29.96 "Hg10 mi
6:35 PM88 °FScattered clouds.17 mph31%29.96 "Hg10 mi
6:15 PM88 °FPartly sunny.20 mph33%29.96 "Hg10 mi
5:55 PM86 °FPartly sunny.18 mph35%29.97 "Hg10 mi
5:15 PM90 °FPartly sunny.17 mph26%29.97 "Hg10 mi
4:35 PM93 °FBroken clouds.14 mph21%29.97 "Hg10 mi
4:15 PM91 °FPassing clouds.7 mph23%29.98 "Hg10 mi
3:55 PM91 °FScattered clouds.10 mph23%29.99 "Hg10 mi
3:35 PM93 °FScattered clouds.12 mph21%30.00 "Hg10 mi
3:15 PM93 °FSunny.9 mph21%30.00 "Hg10 mi
2:55 PM93 °FSunny.15 mph21%30.01 "Hg10 mi
2:35 PM93 °FSunny.9 mph21%30.02 "Hg10 mi
2:15 PM91 °FSunny.10 mph23%30.03 "Hg10 mi
1:55 PM91 °FSunny.12 mph23%30.04 "Hg10 mi
1:35 PM90 °FSunny.9 mph24%30.04 "Hg10 mi
1:15 PM90 °FSunny.13 mph24%30.05 "Hg10 mi
12:55 PM90 °FSunny.8 mph24%30.06 "Hg10 mi
12:35 PM90 °FSunny.12 mph24%30.07 "Hg10 mi
12:15 PM90 °FSunny.12 mph26%30.07 "Hg10 mi
11:55 AM88 °FSunny.12 mph29%30.07 "Hg10 mi
11:35 AM86 °FSunny.13 mph29%30.08 "Hg10 mi
11:15 AM84 °FSunny.12 mph33%30.08 "Hg10 mi
10:55 AM82 °FSunny.14 mph35%30.08 "Hg10 mi
10:35 AM82 °FSunny.16 mph35%30.08 "Hg10 mi
10:15 AM79 °FSunny.15 mph39%30.08 "Hg10 mi
9:55 AM79 °FSunny.16 mph39%30.08 "Hg10 mi
9:35 AM79 °FSunny.18 mph39%30.08 "Hg10 mi
9:15 AM75 °FSunny.14 mph44%30.08 "Hg10 mi
8:55 AM73 °FSunny.12 mph50%30.09 "Hg10 mi
8:35 AM70 °FSunny.9 mph57%30.09 "Hg10 mi
8:15 AM66 °FClear.9 mph60%30.08 "Hg10 mi
7:55 AM64 °FClear.10 mph64%30.07 "Hg10 mi
7:35 AM64 °FClear.9 mph64%30.08 "Hg10 mi
7:15 AM64 °FClear.10 mph64%30.08 "Hg10 mi
6:55 AM64 °FClear.9 mph64%30.08 "Hg10 mi
6:35 AM64 °FClear.8 mph64%30.07 "Hg10 mi
6:15 AM64 °FClear.9 mph64%30.07 "Hg10 mi
5:55 AM66 °FClear.8 mph60%30.07 "Hg10 mi
5:35 AM66 °FClear.9 mph60%30.07 "Hg10 mi
5:15 AM66 °FClear.9 mph64%30.07 "Hg10 mi
4:55 AM66 °FClear.8 mph64%30.07 "Hg10 mi
4:35 AM68 °FClear.9 mph56%30.07 "Hg10 mi
4:15 AM68 °FPassing clouds.8 mph56%30.08 "Hg10 mi
3:55 AM70 °FPassing clouds.10 mph57%30.08 "Hg10 mi
3:35 AM70 °FOvercast.9 mph57%30.09 "Hg10 mi
3:15 AM72 °FPassing clouds.10 mph53%30.09 "Hg10 mi
2:55 AM72 °FClear.7 mph50%30.09 "Hg10 mi
2:35 AM70 °FClear.10 mph53%30.09 "Hg10 mi
2:15 AM70 °FClear.7 mph53%30.09 "Hg10 mi
1:55 AM70 °FClear.7 mph53%30.09 "Hg10 mi
1:35 AM70 °FClear.7 mph53%30.10 "Hg10 mi
1:15 AM70 °FClear.8 mph53%30.10 "Hg10 mi
Weather by CustomWeather, © 2015

See weather overviewHow to use our weather pages